Theta_e
317 316 315 315 314 313 313 313 313 312 310 310 307 308 303 302 299 307 315 318 313 313 305 308 306 303 304 303 303 303 303 304 303 303 302 300 300 300 300 300 300 299 301 299 299 301 298 298 298 298 298 299 301 301 301 300 302 303 302 301 303 313 303 297 297 303 303 306 307 308 307 306 306 311 313 312 308 310 307 304 301 298 300 298 298 297 307
317 316 315 314 314 313 313 313 313 313 310 308 307 306 303 301 302 307 313 319 313 308 301 301 302 303 305 303 303 303 303 302 303 302 301 301 300 301 300 299 300 301 299 300 301 301 298 298 299 299 299 301 304 304 303 302 305 302 303 303 306 300 301 299 296 296 298 300 304 303 306 307 306 308 312 313 313 313 312 310 307 302 303 303 297 293 306
316 316 315 314 314 313 313 313 313 313 312 310 308 307 304 304 306 306 313 321 312 305 306 305 302 304 303 303 304 305 305 303 305 305 302 304 301 300 300 301 301 300 301 301 301 301 300 300 300 300 300 302 305 303 303 304 306 306 306 310 305 302 302 300 292 290 288 287 290 294 297 302 306 309 310 313 313 310 306 302 303 297 305 306 302 304 311
317 316 315 314 313 313 313 313 313 313 312 309 309 306 305 305 300 306 311 314 311 311 307 307 304 305 305 304 305 302 303 306 302 302 303 304 300 300 301 299 303 301 302 302 301 301 302 301 301 302 301 303 304 303 303 311 313 325 322 312 308 303 302 301 301 297 294 297 300 303 306 303 302 307 310 310 313 310 310 307 303 298 305 305 308 309 310
317 316 315 314 313 313 313 313 313 313 311 310 309 308 305 308 305 308 305 311 311 311 312 311 309 307 309 305 305 303 303 304 304 300 300 299 300 301 301 301 301 299 302 301 301 300 301 302 303 301 304 303 304 303 304 304 312 322 315 313 307 307 300 300 302 302 301 300 301 302 306 304 305 305 307 311 312 314 312 308 305 310 306 301 310 312 310
317 316 315 314 314 314 313 313 313 312 310 308 309 312 312 305 305 311 313 303 303 307 307 312 310 308 306 306 303 303 302 302 301 303 300 299 301 300 300 301 301 303 302 303 300 302 302 304 301 302 301 303 303 304 303 304 305 311 306 308 308 303 298 299 299 299 300 300 300 303 304 307 308 308 308 309 311 310 309 309 310 310 306 303 308 311 311
316 316 315 315 314 315 314 314 313 311 308 308 310 310 311 312 312 312 315 309 309 308 309 312 310 307 307 308 306 304 303 302 302 301 301 301 300 301 300 300 300 301 304 305 303 306 299 299 303 305 303 302 304 301 302 302 303 306 305 306 308 306 300 300 300 299 300 302 302 305 305 308 308 308 308 309 311 310 311 311 312 311 307 307 307 307 310
316 315 315 314 315 315 315 314 313 310 307 308 313 310 310 308 309 308 315 313 312 313 312 311 309 306 310 307 305 305 304 303 304 303 300 299 301 301 300 301 300 300 303 309 303 305 307 306 301 305 305 300 303 304 304 301 303 304 303 304 304 303 299 305 301 299 300 303 304 306 306 306 306 308 309 309 310 310 311 311 310 311 308 307 304 306 310
316 315 314 314 314 314 315 314 313 310 309 310 310 308 310 310 314 315 310 306 308 314 310 309 308 306 306 305 306 306 305 304 305 305 305 301 301 301 300 302 302 302 303 305 305 307 309 309 307 308 306 302 307 304 304 304 301 301 302 302 302 303 299 301 301 296 297 302 304 304 305 305 305 305 306 307 307 307 309 309 310 307 305 305 303 301 307
315 315 314 314 315 314 314 315 314 310 309 310 307 306 309 312 312 315 313 305 312 308 309 308 305 303 307 307 308 307 306 306 304 305 305 303 303 303 303 303 304 301 303 304 305 307 307 309 309 310 306 306 306 303 305 304 304 302 304 301 302 305 303 299 299 293 295 301 304 302 303 302 298 301 306 308 310 312 312 314 314 313 309 303 300 302 312
315 314 314 314 315 315 315 315 315 310 312 308 307 305 307 309 310 313 314 303 305 310 310 307 304 308 308 308 307 309 308 308 306 302 305 302 302 303 302 304 305 304 304 307 308 309 308 305 302 303 304 304 304 304 304 304 304 304 305 303 304 305 304 300 301 293 296 300 302 302 299 292 294 308 309 310 310 311 310 310 312 313 312 309 313 313 317
315 314 314 314 315 315 315 316 316 312 311 311 311 307 308 310 309 311 310 303 303 306 307 305 307 309 307 307 307 306 307 308 307 307 304 306 306 304 304 305 307 305 306 306 305 303 304 306 306 308 306 303 300 300 302 302 301 307 303 303 303 305 304 301 301 296 296 301 301 297 291 293 306 311 313 313 313 313 312 313 314 315 317 315 314 315 317
315 314 314 314 314 316 316 316 315 313 312 313 311 307 310 310 309 311 311 305 299 304 298 300 307 307 306 305 305 307 308 309 310 310 309 307 307 303 305 306 307 308 305 303 305 307 304 301 302 303 302 303 301 301 303 303 301 301 302 307 307 302 302 302 299 300 300 299 297 288 292 303 307 309 312 315 313 311 309 307 313 317 317 317 316 317 317
315 314 314 314 314 315 315 316 315 315 313 312 310 310 310 309 308 311 312 306 302 305 304 305 304 303 305 305 305 306 308 309 310 307 307 308 307 305 304 307 307 307 306 308 306 304 302 305 300 301 300 303 302 299 300 301 301 301 301 302 305 306 305 303 296 299 294 297 297 296 303 302 306 306 310 311 308 308 306 302 308 316 318 318 317 317 318
315 314 314 314 314 314 315 315 316 315 314 311 312 311 310 309 308 310 310 307 303 307 305 297 304 304 304 304 306 304 307 308 307 306 306 306 304 305 305 305 307 307 308 309 304 307 302 305 296 295 297 295 291 295 302 299 302 302 301 302 305 308 302 304 298 296 300 297 295 296 295 292 300 309 312 314 312 312 313 308 305 316 318 320 319 318 318
315 314 314 314 314 314 315 315 316 315 315 311 312 310 311 312 311 309 310 312 305 299 301 305 308 306 304 304 304 303 305 305 306 305 305 307 304 303 304 306 306 309 308 307 309 306 302 298 295 294 292 296 299 296 295 301 297 301 302 302 302 302 306 306 300 296 299 298 294 294 291 295 304 309 309 312 314 314 314 306 300 311 318 320 321 318 319
315 314 314 314 314 314 315 315 315 315 315 312 310 310 309 312 310 309 310 311 307 302 306 307 308 309 304 303 306 306 307 304 305 303 300 301 303 304 303 308 309 310 310 311 308 304 300 300 299 299 299 300 296 295 300 298 297 297 300 303 304 303 302 303 300 299 300 299 294 292 299 299 305 308 309 311 316 314 308 296 296 309 318 320 321 320 319
316 315 314 314 314 314 315 315 315 316 314 312 312 309 309 313 311 311 310 310 308 308 312 310 308 304 302 303 303 304 307 306 305 307 303 306 305 306 305 308 304 303 307 307 305 303 301 299 296 295 295 300 301 299 291 300 297 297 297 299 298 299 301 302 296 298 299 297 297 298 299 307 309 309 310 313 315 310 299 293 304 316 320 321 321 321 322
316 315 315 314 314 314 314 315 315 316 315 312 314 312 310 313 313 311 310 307 307 303 307 307 312 309 310 309 305 306 305 303 303 300 302 302 304 305 306 307 306 302 307 307 304 303 299 297 300 299 297 299 299 296 301 296 296 298 300 297 298 299 302 299 300 298 297 299 295 295 300 306 312 312 312 315 308 298 298 309 314 322 322 323 323 321 323
317 315 314 314 314 314 314 315 315 316 316 313 312 308 310 314 315 313 310 307 306 306 310 311 312 308 310 306 306 304 306 306 307 302 302 301 308 307 304 301 306 308 304 309 300 300 298 297 298 301 298 300 301 304 299 299 301 301 300 303 299 300 298 297 298 300 299 299 296 293 288 302 312 312 310 311 305 305 313 317 320 321 323 321 321 322 321
317 316 315 314 314 314 314 315 315 315 315 314 312 309 309 314 314 315 313 310 307 304 306 312 312 312 312 311 312 311 308 305 306 302 307 304 308 303 294 300 304 306 301 305 298 297 301 298 301 301 303 303 302 300 297 300 300 303 303 302 301 307 297 297 300 304 296 296 294 292 301 310 314 314 306 311 311 317 319 322 319 322 323 322 320 320 320
317 316 315 314 314 314 314 314 314 315 315 314 313 311 307 311 313 314 314 312 307 306 309 311 312 311 313 314 315 315 313 311 311 312 307 306 309 306 307 306 305 307 310 310 303 300 302 304 303 302 300 300 301 300 302 297 295 302 304 304 297 307 303 306 298 305 302 299 303 308 310 312 313 313 313 315 316 319 322 324 322 322 322 324 322 319 319
317 316 315 314 314 314 314 314 314 314 315 314 313 310 307 309 311 315 313 307 310 310 312 311 312 313 315 316 317 317 316 317 316 315 313 308 306 307 305 304 307 313 312 312 312 310 309 306 303 308 304 305 303 299 299 299 299 302 301 305 304 308 308 310 308 303 308 309 310 311 312 313 314 314 316 317 319 319 321 322 320 323 325 325 322 321 320
317 317 315 315 314 314 314 314 314 314 315 315 313 310 308 310 312 311 310 308 305 303 308 311 307 307 308 310 313 318 318 317 317 317 319 315 305 306 309 310 311 310 315 320 314 314 309 311 305 306 302 305 306 302 299 296 300 305 304 302 305 307 307 307 305 308 303 297 311 311 313 313 315 316 317 320 322 322 323 323 324 324 325 324 323 322 321
316 316 316 315 315 314 314 313 313 313 315 315 314 314 314 311 313 311 307 303 303 303 299 305 307 311 313 315 318 316 317 320 322 320 318 316 312 307 308 312 314 311 310 315 315 314 316 309 304 304 301 307 308 299 304 301 300 306 301 304 304 304 311 307 307 307 305 306 311 311 312 314 315 317 318 318 321 322 324 326 327 327 327 325 323 322 320
316 316 316 315 314 314 314 313 313 314 314 314 314 311 308 308 313 314 309 308 307 305 299 299 304 313 315 313 311 315 316 317 318 319 318 317 316 313 312 314 314 319 317 314 312 314 312 311 312 310 304 305 307 305 304 305 306 308 306 305 310 310 310 303 307 305 307 308 310 311 314 314 315 316 318 321 323 324 324 325 325 325 324 323 323 323 321
316 316 316 315 314 314 313 313 313 313 314 314 313 313 311 312 314 311 307 307 303 300 302 300 306 309 312 309 313 315 315 315 314 315 317 317 315 315 313 312 311 313 312 312 314 313 313 311 309 305 307 305 309 306 307 303 305 304 303 306 309 307 304 307 307 304 302 304 308 312 306 306 312 316 318 319 323 326 325 325 325 325 324 323 322 322 323
316 316 315 314 314 313 313 313 313 313 313 313 313 312 313 312 312 314 313 310 306 301 301 302 303 307 312 308 312 313 314 315 315 313 313 315 316 314 313 311 312 309 310 312 310 312 313 306 304 307 308 307 307 304 308 308 307 306 306 307 310 308 308 307 305 304 302 312 316 317 321 319 317 317 319 321 324 326 325 325 325 326 326 326 325 322 322
316 316 315 314 314 313 312 312 312 312 312 312 311 310 311 313 314 314 314 314 311 304 302 304 308 307 301 306 313 312 314 314 314 313 313 312 313 313 312 312 311 310 310 311 314 314 314 311 310 308 309 314 311 304 304 302 302 301 307 313 311 315 317 314 316 316 313 314 317 319 316 311 315 320 320 322 325 326 325 327 327 327 327 327 327 326 325
315 315 314 314 313 312 312 311 312 312 312 312 310 307 305 309 313 313 314 313 311 308 302 301 298 304 312 311 311 313 313 313 311 311 311 310 310 311 312 312 311 313 313 313 315 308 309 311 310 312 312 315 307 307 303 303 302 305 313 313 314 315 315 318 319 314 310 318 318 320 319 317 318 320 321 323 325 326 325 325 326 327 326 328 327 328 329
315 315 314 313 312 312 312 311 312 312 310 310 308 302 299 299 307 314 313 313 313 309 306 304 301 307 306 312 312 310 311 313 313 310 309 309 311 311 312 313 316 317 311 314 317 310 312 310 312 312 315 317 313 307 305 302 302 305 312 314 313 316 315 315 316 317 317 316 317 318 319 318 318 318 319 322 322 324 326 326 328 328 327 327 327 328 328
315 314 313 312 312 312 312 312 312 313 312 308 305 304 305 307 309 314 314 314 313 308 304 300 301 302 301 306 309 313 311 312 310 312 314 314 312 315 314 315 314 319 318 314 313 311 312 312 314 313 312 315 314 306 305 304 302 305 315 314 315 316 318 315 314 314 317 318 316 314 314 315 318 317 315 321 322 323 325 326 327 328 327 327 327 328 328
314 313 312 312 312 312 312 313 313 313 311 312 313 313 312 312 312 313 315 314 311 307 308 303 299 303 301 304 309 310 314 312 310 312 310 315 314 316 316 319 319 317 317 313 309 309 311 314 313 310 311 316 311 307 306 304 307 315 315 316 316 316 316 317 316 317 318 318 320 316 313 314 316 320 322 322 322 321 324 324 325 325 324 324 324 324 324
313 312 312 311 312 312 313 313 314 313 312 309 305 308 312 312 312 312 314 313 309 309 308 303 301 300 301 310 302 310 313 309 311 312 310 313 315 315 317 314 316 314 313 310 310 312 313 314 311 310 312 310 310 307 302 307 314 313 311 313 315 316 317 315 314 315 317 319 319 318 322 323 323 321 320 321 320 322 324 323 322 322 322 323 323 324 325
312 312 311 312 312 313 313 313 311 309 306 307 307 312 314 312 312 313 313 310 304 303 304 306 306 299 297 299 299 306 314 309 310 311 309 313 317 313 313 312 312 308 308 316 311 312 310 310 315 309 306 310 306 302 306 311 311 312 311 313 314 316 315 314 313 317 317 318 317 320 318 319 318 318 319 319 318 319 320 319 320 321 321 322 322 323 324
311 311 311 312 312 313 312 311 310 307 305 305 308 315 316 315 314 315 315 314 310 304 303 303 303 299 299 293 295 307 312 307 308 311 311 313 311 314 313 311 304 307 314 307 306 309 309 314 311 304 310 305 304 307 311 317 316 314 314 316 316 317 317 318 318 316 316 316 318 319 319 319 318 319 319 319 318 319 320 318 319 320 319 321 322 323 324
311 311 312 313 312 309 305 306 310 308 308 312 314 318 317 316 315 315 313 310 313 313 305 303 300 301 301 300 303 307 309 303 309 311 312 310 310 312 311 309 304 313 308 308 307 307 309 315 309 306 305 303 308 317 319 320 320 318 315 317 318 319 319 319 318 316 314 315 316 317 318 318 319 318 317 317 317 318 318 317 316 317 318 319 321 321 322
311 312 311 308 306 303 303 306 308 313 316 316 317 313 311 313 305 307 307 304 309 311 307 306 301 305 305 301 298 308 306 305 309 306 308 311 309 307 310 309 308 307 301 304 305 312 311 309 307 305 307 314 315 315 317 318 320 322 323 321 319 318 319 319 317 316 315 313 313 313 314 316 316 317 316 316 316 316 318 319 320 319 320 320 321 322 320
311 310 308 308 305 303 305 310 318 317 314 315 314 309 306 307 305 301 303 305 307 303 307 304 302 306 303 301 303 311 305 302 303 307 303 310 307 303 308 302 307 307 299 302 307 314 304 305 306 305 303 310 312 315 320 318 318 318 319 321 320 319 319 319 320 319 318 317 318 318 317 315 316 315 318 318 318 318 319 319 318 318 320 321 321 322 321
308 304 304 304 303 308 317 315 317 315 314 308 309 307 302 305 301 294 305 297 297 304 305 300 306 305 305 303 302 302 311 307 304 303 305 307 311 306 306 306 306 304 299 299 304 311 303 300 304 303 302 309 312 318 321 320 318 319 317 317 318 318 320 320 321 324 324 324 324 321 322 322 322 319 317 317 316 315 314 316 319 319 320 321 321 321 321
306 306 306 304 310 313 313 315 316 314 309 305 304 303 302 296 303 304 302 299 298 300 307 305 305 303 305 304 303 300 309 315 312 311 311 303 312 309 303 301 310 301 298 299 307 308 305 302 302 301 302 310 313 319 319 317 318 320 318 317 318 318 319 320 321 322 322 321 321 321 321 322 321 320 319 318 318 318 317 317 317 317 318 318 319 321 321
309 308 310 311 311 312 313 312 311 307 306 306 300 294 298 300 303 300 302 296 298 303 303 305 302 303 303 304 303 305 306 314 315 313 308 303 308 305 302 304 307 301 296 305 310 308 304 299 299 299 307 311 317 316 314 316 318 318 318 317 318 318 319 319 319 320 321 322 322 321 320 320 321 320 319 319 319 319 318 318 317 317 317 320 319 317 317
310 311 312 309 310 308 310 300 308 306 293 293 291 290 295 291 298 297 298 302 306 303 303 309 306 307 306 308 305 307 305 312 309 310 307 302 308 308 304 299 300 293 301 309 305 303 298 296 294 301 308 313 318 317 315 316 319 319 319 318 319 319 319 319 319 319 320 322 321 321 319 320 321 320 319 319 318 318 318 319 320 318 317 317 317 317 317
313 312 307 307 304 306 308 290 306 300 292 290 290 288 292 292 295 298 296 299 302 301 304 303 304 303 300 306 304 303 304 309 312 309 305 308 306 303 302 295 299 305 309 303 302 297 299 302 303 307 312 315 313 312 314 315 315 316 317 317 317 318 318 319 320 318 317 319 320 319 320 320 318 317 317 318 318 318 318 318 317 317 317 318 317 317 317
305 303 300 298 294 298 294 287 303 296 290 293 294 295 296 293 296 298 298 304 304 303 306 305 305 303 302 307 307 308 308 304 311 306 301 306 302 303 300 298 305 305 300 297 300 300 298 299 305 308 311 313 316 318 318 316 316 317 318 316 316 316 317 317 317 318 318 318 318 317 317 317 317 316 316 317 319 320 318 316 316 316 317 317 316 315 316
302 295 294 291 290 293 292 289 291 290 297 299 297 299 298 299 300 300 305 306 305 306 305 306 306 306 303 307 302 301 308 309 304 304 305 306 298 296 304 308 306 301 298 298 296 294 298 302 306 310 316 317 318 318 316 316 315 316 316 316 316 316 317 317 318 318 318 318 318 318 318 317 317 316 316 317 317 318 319 317 317 317 317 317 315 315 315
303 305 294 292 289 293 300 291 293 298 301 301 303 303 303 304 305 305 307 307 306 307 308 309 308 307 304 303 303 303 307 308 302 305 307 300 299 300 305 301 295 298 295 294 295 297 301 305 309 313 317 317 316 314 313 314 314 315 316 319 319 317 317 317 317 317 318 318 317 317 317 317 317 317 315 314 315 316 316 316 316 317 318 316 316 315 315
292 299 301 290 289 293 293 298 306 303 303 304 304 305 305 306 304 305 307 308 308 307 307 307 305 307 306 308 306 300 304 307 303 303 306 303 302 297 293 297 297 299 299 297 298 304 306 309 312 316 318 316 314 314 315 315 315 315 316 317 318 317 317 317 317 317 317 317 317 317 316 316 315 315 315 314 313 313 314 315 316 317 316 315 314 315 314
304 295 292 291 298 299 301 304 301 300 302 304 304 305 304 304 304 306 309 309 308 307 308 306 309 307 302 298 301 301 301 304 296 296 304 301 297 292 293 292 295 294 301 303 303 307 308 313 316 315 314 313 313 313 315 316 316 316 315 316 316 317 317 317 317 317 317 317 317 316 315 315 315 315 314 313 312 311 313 314 315 316 316 315 314 314 314
294 295 300 296 299 302 303 303 301 300 302 304 305 305 306 305 306 308 312 311 311 310 308 307 305 297 290 294 295 299 301 305 302 299 300 297 298 299 297 294 297 297 300 306 307 310 313 315 314 313 315 314 316 315 315 315 315 316 316 316 316 316 317 317 317 317 317 317 316 315 314 313 313 313 313 314 313 312 313 314 315 315 315 315 315 314 314
302 299 297 305 301 300 302 297 298 299 301 303 304 305 305 306 306 308 313 311 310 309 306 303 301 298 293 294 292 291 295 304 301 299 298 298 302 300 297 295 300 304 307 312 312 313 317 317 313 315 316 318 318 318 317 316 316 317 316 316 316 316 316 317 316 316 316 316 315 314 313 313 314 315 314 313 311 312 312 313 314 315 315 315 315 314 313
293 293 298 302 305 304 304 305 304 303 304 305 304 306 307 306 309 311 314 311 311 305 303 303 300 294 291 292 300 302 306 301 300 300 297 301 303 299 300 302 304 309 311 311 312 314 314 314 314 314 316 318 319 318 317 316 315 315 315 315 315 315 315 315 315 315 314 313 314 314 314 313 313 312 312 312 311 311 310 309 312 314 314 314 314 315 314
Wind_Speed
12 12 13 14 16 16 16 18 19 19 21 8 7 5 2 3 2 3 3 1 3 1 2 2 1 2 1 2 3 2 1 2 2 2 1 3 1 1 2 3 4 2 2 2 1 1 3 1 1 2 2 2 6 1 1 3 2 1 2 1 2 2 2 2 2 2 3 6 5 3 3 3 3 5 2 2 2 1 0 0 2 1 3 3 1 4 1
11 12 12 13 14 15 16 16 18 15 16 6 7 2 2 1 2 2 1 2 3 4 5 4 4 2 1 1 3 2 2 1 1 3 2 2 3 3 2 1 2 1 1 2 5 4 3 2 1 2 2 3 1 1 0 4 2 2 2 1 3 3 1 1 2 2 2 3 3 3 4 2 1 2 2 1 3 3 3 5 1 2 1 2 4 8 2
11 11 11 13 14 14 15 16 16 14 14 8 2 3 2 2 2 2 4 2 1 3 1 2 2 3 2 0 2 1 1 4 5 2 3 2 1 2 2 1 3 2 1 3 3 2 2 3 2 1 2 2 1 1 3 1 2 1 1 2 3 1 2 2 2 3 4 3 3 4 5 3 1 1 1 2 5 9 6 3 3 2 2 2 2 1 3
10 11 11 13 14 15 15 15 15 14 13 5 1 1 2 3 1 2 1 3 1 1 1 1 1 3 3 2 1 1 2 1 1 3 4 3 2 1 2 2 2 3 2 3 2 2 2 0 4 3 5 2 1 1 4 2 1 3 7 3 2 3 2 0 1 1 1 0 2 1 1 2 2 2 2 2 4 6 7 5 4 3 2 2 1 1 5
10 10 11 13 13 15 15 15 14 14 13 3 1 1 1 1 1 2 1 1 1 1 1 0 1 3 4 2 3 3 3 3 4 3 2 1 4 2 0 3 6 1 2 3 2 1 2 2 5 3 4 2 1 1 2 1 2 4 3 3 2 3 2 1 2 2 2 3 4 0 2 2 2 2 3 3 4 5 6 2 3 3 4 1 3 1 3
10 11 12 13 13 14 15 16 15 14 15 1 2 1 0 1 1 1 1 1 1 3 2 3 1 1 1 1 1 2 1 1 1 1 2 1 1 4 1 2 1 8 8 6 4 2 2 0 6 2 1 1 1 2 2 2 4 2 2 1 1 2 2 2 2 1 3 3 3 3 1 3 3 4 3 3 3 7 8 4 6 4 1 2 5 3 2
10 11 12 13 13 14 15 16 15 15 14 3 1 1 1 0 1 0 1 2 1 2 2 4 2 1 2 1 2 3 3 2 2 1 2 1 3 2 4 6 5 6 4 6 4 5 5 3 1 4 3 2 2 2 1 0 3 2 2 3 2 1 1 2 1 1 3 5 3 1 1 2 4 5 5 5 3 10 11 10 9 8 8 8 6 7 2
9 11 12 13 13 14 14 15 14 16 13 1 1 3 2 2 2 0 1 1 2 2 2 1 0 2 1 3 4 3 4 2 1 1 3 2 3 1 3 5 4 5 6 5 7 9 7 8 7 4 4 2 1 1 1 3 2 2 2 1 2 1 2 2 2 1 3 5 2 1 1 1 3 4 6 6 4 6 8 11 9 9 8 8 8 11 5
8 11 13 13 12 13 13 15 13 15 14 1 2 2 3 1 1 1 2 2 0 1 1 1 1 2 2 3 2 1 3 2 2 3 5 6 4 5 9 6 5 2 4 4 6 10 8 9 11 11 10 7 7 4 4 3 3 2 2 1 0 2 1 1 2 2 0 4 4 2 1 1 1 2 4 3 1 2 1 4 5 3 5 7 9 6 6
8 9 11 11 10 12 13 13 12 14 12 2 1 1 2 2 1 1 1 2 1 1 0 1 1 4 1 1 2 2 2 1 1 3 2 5 7 4 3 7 6 2 4 9 9 7 6 6 1 6 2 2 4 1 4 8 4 3 2 0 1 1 3 2 1 2 0 3 1 3 0 1 4 5 2 2 4 3 3 3 1 2 10 7 6 7 5
7 7 9 10 10 9 11 12 10 12 10 5 3 2 3 3 1 1 1 2 1 0 1 1 2 2 0 2 2 1 3 2 2 1 1 1 2 1 4 9 7 2 9 5 1 4 5 5 6 5 5 4 5 2 4 5 1 3 5 2 1 1 2 1 0 2 1 2 2 1 2 4 2 3 2 2 1 3 2 2 3 5 6 3 1 3 4
6 6 7 9 9 8 9 10 8 8 9 5 2 1 1 2 1 1 0 1 1 0 2 3 3 1 1 3 3 3 5 5 4 3 6 4 5 3 4 3 4 4 3 6 9 10 8 5 7 5 8 7 6 6 4 1 1 3 1 3 4 3 3 3 1 1 2 2 1 3 4 3 3 3 1 3 1 0 2 1 3 6 6 9 6 5 3
5 6 6 8 9 7 7 8 6 4 7 6 3 1 1 1 1 1 0 1 3 0 2 2 1 3 4 5 4 5 7 9 8 8 9 9 6 4 4 4 6 4 10 11 9 7 7 4 4 2 3 4 5 4 5 5 4 3 2 1 5 4 4 4 3 2 3 2 3 3 1 5 6 4 1 2 3 3 3 3 5 6 6 5 8 6 4
5 5 6 6 8 8 7 6 6 4 4 5 4 2 2 1 1 1 0 1 3 1 2 5 5 5 1 2 3 6 7 8 5 3 5 7 10 7 4 3 3 5 9 9 8 8 5 2 2 1 1 4 1 3 2 1 5 3 2 0 1 6 4 3 3 2 2 1 5 4 5 7 5 4 6 6 2 2 1 1 4 9 7 7 7 8 7
6 5 5 6 6 7 5 5 5 5 4 4 4 2 1 1 1 0 1 1 3 1 2 4 1 1 2 3 1 4 3 4 6 1 2 1 5 5 3 1 1 6 5 6 4 4 3 3 2 4 1 2 5 4 2 2 2 3 2 1 2 3 4 2 2 2 1 3 3 3 3 5 1 4 4 2 2 3 5 2 2 5 7 6 7 8 9
7 6 6 5 5 6 6 4 2 5 3 3 3 2 2 1 3 1 0 1 1 4 2 6 2 1 3 3 2 3 3 3 3 4 4 1 2 2 3 3 2 0 4 7 3 5 2 3 3 3 4 4 1 1 4 2 2 2 2 2 7 5 5 4 2 4 3 3 3 3 4 1 3 6 5 5 3 4 4 4 1 1 6 8 9 9 9
8 7 6 5 5 5 5 1 1 3 2 3 4 3 1 2 1 2 1 1 2 5 1 1 2 1 1 2 2 1 1 2 3 3 1 1 2 3 3 1 2 2 2 4 2 3 3 3 2 0 1 1 4 2 3 1 4 3 4 4 7 6 2 3 3 4 3 3 4 4 4 2 3 1 3 5 3 4 3 4 1 1 7 7 8 9 9
9 8 7 6 5 5 4 2 3 3 2 2 3 3 2 1 2 2 1 1 2 5 2 3 4 3 3 1 2 1 0 1 1 1 3 3 3 2 3 1 4 3 2 3 1 5 2 3 4 4 3 2 1 2 3 2 4 4 4 3 4 3 2 2 3 3 3 4 2 2 3 2 2 2 4 4 4 2 3 2 3 5 5 5 7 8 9
10 8 8 7 6 5 4 4 4 3 1 2 4 1 2 1 1 2 1 1 2 5 1 2 3 3 1 1 1 2 1 1 1 3 4 2 1 5 5 4 2 3 4 5 2 3 4 2 3 1 3 3 2 3 3 2 3 2 3 4 3 2 2 1 0 4 4 3 4 3 3 1 3 2 3 4 4 4 3 2 1 5 5 3 3 6 7
10 9 8 8 7 6 5 5 4 2 1 2 3 2 2 1 2 2 1 2 1 5 4 6 5 7 2 2 2 3 3 3 2 3 2 2 4 7 3 2 1 1 1 2 3 1 2 4 3 2 2 3 2 2 1 1 1 4 3 1 3 6 5 4 4 3 2 2 2 0 3 2 4 9 4 1 4 1 3 4 2 2 3 6 4 4 6
11 10 8 8 8 7 5 5 4 3 0 3 3 2 1 2 2 3 3 1 2 5 5 1 1 5 5 7 8 9 8 7 3 2 1 3 2 2 3 4 3 2 4 4 4 3 3 3 3 2 1 1 3 2 3 2 3 1 2 3 1 1 4 2 2 4 2 4 4 2 2 4 8 5 3 5 1 2 4 4 5 3 3 4 5 3 5
11 11 9 9 9 8 6 4 4 3 1 4 3 1 2 1 1 1 2 0 4 6 3 4 4 9 11 11 10 9 9 10 10 5 5 5 2 4 3 2 3 2 1 3 4 2 1 2 2 3 4 3 1 2 1 3 4 2 1 2 4 5 1 1 2 5 4 1 1 3 1 0 2 1 3 1 1 1 4 1 3 5 3 2 3 5 5
11 12 11 10 9 9 7 6 5 3 2 3 1 1 2 3 2 2 2 4 4 6 5 8 9 11 10 12 15 14 14 12 12 9 8 6 4 3 5 4 3 2 0 2 2 3 3 5 2 2 2 3 5 4 1 1 0 3 4 2 2 3 1 0 1 3 1 2 2 2 0 2 1 2 1 2 3 1 3 4 4 1 3 3 4 5 7
12 12 11 11 10 10 8 7 6 5 4 3 2 3 3 3 4 3 2 3 3 6 6 4 1 4 1 3 2 5 9 10 12 12 8 8 6 3 3 5 2 1 1 1 1 3 4 2 1 1 2 3 3 4 5 3 3 2 2 3 1 1 3 2 2 3 3 2 3 1 2 2 3 4 3 1 1 2 2 2 3 4 4 4 5 6 7
12 13 12 11 10 10 9 8 6 5 4 4 3 3 4 3 2 2 2 3 2 2 4 4 6 8 3 3 6 6 8 8 6 9 10 12 12 8 0 4 1 2 4 4 1 2 3 3 1 1 4 2 3 3 2 2 3 3 5 2 2 4 5 1 2 6 2 2 4 1 1 1 0 2 5 5 4 3 1 1 4 4 5 5 6 7 7
13 13 13 11 10 10 9 8 7 5 3 4 4 4 3 4 1 1 2 2 1 1 3 4 4 2 2 6 5 4 0 4 8 10 12 14 15 13 8 4 4 2 1 0 2 2 5 4 2 1 3 3 1 1 3 1 2 1 3 2 0 3 6 3 6 3 2 1 1 1 1 1 3 3 1 2 5 6 5 5 6 6 8 7 6 5 7
12 12 12 11 10 9 8 8 7 7 4 4 4 5 6 5 4 6 4 3 2 3 4 6 6 6 5 11 12 8 8 8 8 9 10 12 13 12 9 7 7 5 3 2 1 1 3 2 2 2 0 2 3 1 2 3 2 3 4 2 3 6 5 4 5 3 4 5 7 9 6 5 7 8 8 7 4 7 7 6 7 8 8 8 8 5 5
11 12 12 11 10 9 8 7 6 5 3 3 4 5 5 7 7 7 7 7 5 3 2 4 5 8 10 12 5 3 4 5 6 8 9 10 12 10 10 9 6 4 3 2 3 2 2 5 3 1 2 2 3 2 1 3 1 1 2 5 7 6 6 7 6 5 3 4 8 11 2 2 6 11 10 9 7 8 10 9 9 8 8 8 9 9 7
11 11 10 9 8 8 8 5 4 5 3 3 4 6 8 8 8 8 8 6 5 2 4 7 8 5 4 5 7 7 5 6 8 9 9 9 10 10 9 9 7 5 1 2 1 2 2 2 2 4 3 4 2 2 2 3 4 6 5 6 8 2 8 11 7 5 2 1 8 10 3 3 4 9 11 10 8 9 10 9 8 8 7 7 8 9 9
12 11 10 8 7 8 6 6 6 6 3 1 3 2 2 2 2 4 8 7 6 2 2 4 4 3 4 4 5 3 3 2 5 7 9 7 8 9 8 7 6 5 3 3 3 3 1 2 1 1 3 1 2 3 3 1 2 3 1 2 6 1 5 2 2 4 3 3 6 8 4 4 4 8 9 10 8 7 10 10 9 8 6 5 7 6 6
10 9 8 8 8 8 7 6 7 6 3 3 1 2 0 1 2 2 7 7 7 4 2 2 7 7 7 3 3 6 5 3 3 4 7 6 5 6 6 7 2 5 5 3 0 3 2 3 2 2 2 1 2 4 3 3 3 2 4 6 8 7 7 7 3 2 3 5 7 7 4 5 6 8 6 8 8 6 7 7 7 8 8 6 7 7 5
8 8 8 9 8 7 7 8 8 8 6 5 5 1 2 1 2 4 7 5 6 4 2 4 4 2 3 4 2 2 3 3 1 2 2 2 5 4 5 4 4 1 2 2 2 3 1 1 1 3 3 2 2 2 2 2 4 4 2 5 5 4 2 5 5 3 3 8 12 8 5 3 6 10 8 11 10 7 9 10 8 8 8 5 5 4 4
9 9 9 8 8 7 8 9 9 6 3 3 6 11 10 11 10 4 2 6 4 2 2 2 3 3 3 2 5 2 1 1 2 1 4 2 3 3 3 2 1 1 4 3 3 1 1 2 1 3 2 1 2 3 3 5 5 1 1 1 2 3 4 2 4 5 6 8 7 6 8 9 11 4 5 12 10 8 9 10 8 7 7 8 8 6 5
9 8 8 8 7 6 6 5 6 6 5 3 6 8 7 11 9 8 4 2 1 2 2 3 3 2 5 3 3 2 2 1 1 1 3 2 1 1 2 3 3 2 3 3 1 1 1 0 1 2 3 1 2 2 3 4 3 1 0 0 2 3 3 4 5 7 6 7 1 3 2 3 6 7 7 10 9 6 7 8 10 10 9 10 9 8 7
8 7 7 7 6 5 7 6 4 4 3 4 5 5 3 9 9 9 9 4 3 3 3 3 3 3 3 2 1 1 2 2 1 2 1 1 3 1 1 4 4 1 2 3 2 0 3 3 3 4 4 2 2 4 3 3 4 3 1 3 3 4 4 4 4 5 5 4 2 2 6 10 11 8 9 11 10 9 10 10 11 11 9 8 8 8 8
7 7 7 6 5 5 3 3 3 3 3 3 3 2 4 8 9 6 7 5 3 2 2 1 1 3 1 2 2 1 4 2 1 1 1 1 2 3 1 3 4 1 2 0 3 2 3 2 3 3 3 3 6 4 5 6 6 6 7 7 8 9 8 8 8 8 5 3 3 4 7 9 11 10 9 10 10 10 11 10 8 9 10 8 8 7 5
7 5 4 4 4 3 3 3 3 4 3 1 4 14 17 14 7 5 3 2 3 3 3 3 3 3 2 2 2 3 4 1 3 1 2 1 3 1 2 3 4 1 1 2 1 2 2 2 1 2 4 5 4 5 6 6 7 7 6 7 8 5 1 3 9 12 9 6 5 4 6 8 7 7 8 9 9 9 10 11 10 10 10 10 8 7 7
3 3 3 3 2 2 2 3 3 3 6 10 15 8 2 2 4 4 3 3 2 4 5 3 6 2 1 1 4 2 3 1 1 1 2 1 1 3 2 2 2 2 6 2 2 1 2 2 2 3 3 3 3 3 4 5 5 4 5 6 7 7 4 7 11 11 11 7 5 5 4 5 6 7 9 10 10 11 10 9 8 7 7 8 8 8 7
5 4 2 2 2 3 2 3 3 9 6 2 2 1 3 1 3 3 3 2 2 4 3 5 5 3 4 4 6 2 1 3 3 1 2 1 0 3 2 2 0 0 1 1 2 1 2 1 1 1 5 1 3 7 6 5 4 4 4 4 5 7 7 9 11 13 12 9 11 12 12 9 10 9 7 8 7 6 5 6 6 5 6 6 6 6 7
3 3 4 3 4 2 3 2 2 7 2 4 3 2 3 1 2 1 3 1 2 3 3 5 3 3 6 7 3 3 1 2 2 2 3 2 3 2 1 1 1 1 2 2 2 1 3 4 2 1 5 3 5 4 4 5 6 6 5 5 6 8 9 10 9 7 9 8 9 10 8 9 9 10 10 9 9 8 5 4 4 4 5 5 6 7 8
3 2 3 3 1 2 2 2 1 1 2 2 2 1 1 2 3 1 3 3 3 2 4 3 1 2 3 2 3 5 1 1 1 0 0 3 2 2 4 2 1 1 1 2 2 3 3 2 3 5 5 4 6 6 5 4 6 6 5 6 7 8 10 10 10 8 5 5 5 6 5 5 7 9 10 12 10 9 8 8 7 6 6 6 7 6 3
0 1 1 2 2 1 1 1 3 3 0 1 1 1 1 1 1 1 3 3 3 2 3 4 3 3 3 6 5 4 2 0 0 1 1 3 2 1 3 2 1 2 3 1 3 2 2 5 4 3 3 6 8 4 3 6 7 6 6 8 9 9 9 9 9 6 6 7 7 7 6 6 7 7 8 9 8 8 7 6 6 6 7 4 4 4 4
3 2 2 2 1 1 2 1 2 1 2 1 1 0 0 1 3 3 2 3 1 2 1 0 2 1 1 1 2 2 0 1 1 2 1 2 1 1 2 1 2 2 2 3 2 2 4 3 2 4 3 6 6 6 6 7 4 4 5 7 8 9 11 11 11 10 7 6 8 8 8 7 6 6 7 8 8 7 4 4 6 7 6 6 5 5 5
2 1 2 2 1 1 2 2 1 1 0 0 2 2 3 2 2 2 2 2 2 2 2 2 2 3 1 2 1 2 1 1 1 2 3 0 0 1 1 1 2 2 1 2 2 4 3 2 4 4 4 4 3 5 6 6 5 4 3 5 6 7 7 6 6 7 6 4 5 5 5 7 7 6 6 7 10 10 6 5 5 6 7 7 7 6 5
2 2 1 0 0 1 1 1 2 1 3 3 2 2 4 3 2 4 2 1 1 1 1 1 1 2 2 2 0 1 1 2 0 1 2 1 2 1 1 1 2 2 3 2 2 1 1 5 4 4 5 6 7 7 4 4 5 6 5 5 7 8 9 10 10 8 8 8 9 9 7 7 7 7 7 7 6 7 9 8 7 8 7 7 7 7 5
2 1 1 2 0 1 1 1 0 1 2 2 3 3 3 2 1 2 1 1 1 2 1 0 1 1 1 1 2 1 2 2 4 2 3 2 2 2 1 2 2 3 1 2 2 2 4 3 4 6 6 8 8 5 3 2 3 4 5 6 8 10 11 11 10 10 9 8 8 9 9 8 8 8 7 6 6 5 6 8 8 9 8 9 8 8 6
1 1 0 1 1 1 1 1 3 2 0 2 2 3 3 1 2 3 1 1 2 1 1 0 1 1 1 2 2 2 1 1 3 2 2 3 3 3 1 2 3 3 4 4 3 4 3 5 6 5 7 7 5 4 3 3 4 6 7 5 7 9 10 11 11 10 9 9 9 9 8 8 7 7 8 8 6 6 7 8 8 9 9 9 8 7 7
1 2 1 1 2 2 2 3 1 2 2 1 1 1 1 1 2 2 2 2 1 1 1 1 1 2 2 2 2 1 1 0 2 2 1 2 3 3 0 2 3 2 2 3 4 3 4 5 5 4 4 3 3 3 3 4 5 7 7 7 8 9 10 11 11 10 11 11 11 9 8 9 9 9 8 9 9 7 7 7 8 8 8 9 8 8 8
1 1 1 1 1 1 1 1 1 2 1 1 1 1 1 2 2 3 2 0 1 1 1 2 1 1 1 3 1 2 3 0 2 2 2 2 3 3 3 2 4 4 4 4 5 3 6 5 2 2 3 3 3 3 4 4 4 6 7 9 9 10 11 12 12 12 12 10 9 10 9 9 9 8 8 9 10 8 6 7 8 7 8 9 9 8 8
0 1 0 0 1 1 1 1 1 2 0 1 1 1 1 0 1 1 1 1 1 2 2 3 4 3 1 2 0 0 1 1 1 1 3 4 3 2 2 3 3 3 2 3 4 4 5 3 0 3 3 3 3 4 4 4 4 5 5 6 6 8 9 11 11 12 11 10 11 10 12 10 9 9 11 10 9 9 8 7 8 8 8 8 8 8 8
1 0 2 2 1 1 1 2 3 2 2 1 1 1 2 2 3 3 2 1 1 2 1 2 2 2 1 0 0 2 2 2 3 4 4 5 2 3 4 6 4 4 3 1 3 3 3 1 1 2 2 3 3 3 4 4 3 4 5 6 6 7 8 9 11 11 11 9 11 12 11 10 9 9 9 11 11 10 9 7 6 7 7 7 7 8 8
0 0 1 1 1 2 2 1 1 3 3 2 1 1 1 2 2 2 1 1 2 3 2 2 2 2 0 2 2 1 2 1 1 2 3 3 2 4 3 4 5 3 4 5 5 3 1 1 2 2 2 3 4 3 3 2 2 3 5 6 7 9 10 10 10 10 10 10 10 10 9 10 11 10 10 12 12 11 10 8 6 6 7 6 6 7 7
Wind_Direction
330 335 341 346 345 341 340 338 341 351 357 6 352 309 313 34 292 350 348 237 287 71 54 15 199 226 251 347 252 240 260 234 153 237 160 222 201 127 213 184 172 223 181 191 115 179 95 275 71 140 239 228 227 198 297 169 99 207 97 228 152 179 14 141 28 324 276 254 259 171 122 191 146 73 85 182 67 51 263 106 66 161 146 157 105 244 190
328 332 339 345 342 340 338 337 342 353 15 352 309 307 52 265 287 315 94 2 318 209 200 195 199 246 274 198 294 193 270 177 223 218 223 207 163 179 150 80 276 97 106 152 161 199 154 247 180 137 220 144 109 205 347 194 182 190 132 243 143 242 125 285 119 160 209 275 224 190 100 221 354 81 88 164 132 163 99 101 111 222 67 336 186 233 144
327 330 336 344 342 339 336 339 339 352 360 7 309 353 330 272 234 256 300 346 286 234 182 182 152 192 200 137 250 265 229 207 247 241 249 144 163 141 181 184 144 96 96 73 77 70 329 132 291 360 217 150 339 179 19 214 219 241 346 54 151 25 134 183 245 206 196 197 208 212 197 165 139 335 272 206 162 149 160 142 143 195 108 184 244 104 87
326 331 336 346 343 338 337 337 339 346 354 9 256 307 283 360 127 336 70 20 89 90 357 321 208 137 164 191 150 174 259 254 248 171 257 184 115 348 108 95 113 82 147 96 69 112 13 181 155 203 170 213 180 309 316 166 41 72 93 115 160 107 141 212 225 274 249 355 319 30 38 178 209 76 2 61 86 93 99 121 158 176 136 203 308 342 128
328 331 341 347 342 336 336 336 338 341 347 8 245 225 331 203 12 354 62 5 40 349 10 212 215 200 164 204 166 191 218 283 297 164 230 166 178 114 314 139 166 180 147 146 123 353 146 42 145 179 169 230 239 287 294 245 59 17 109 44 99 112 151 87 168 263 277 318 284 203 265 286 161 195 86 59 76 106 101 139 134 108 140 215 136 174 149
330 335 344 345 340 336 337 336 340 340 346 129 222 352 329 311 80 245 20 299 136 167 164 6 327 35 217 199 177 195 219 17 31 315 206 240 216 188 72 194 280 183 173 150 147 133 60 164 172 192 289 283 339 139 15 50 320 279 89 329 212 129 181 125 237 29 320 322 303 327 344 25 33 12 338 75 92 83 91 88 124 171 311 101 42 353 177
330 335 345 345 342 337 338 337 342 343 346 165 260 302 48 311 24 298 10 247 256 284 343 317 311 291 231 121 201 181 197 147 168 235 331 270 174 238 192 210 197 193 160 159 143 164 147 189 334 203 170 168 115 149 14 347 1 124 97 48 13 157 74 117 277 318 5 19 13 37 157 134 80 45 26 355 58 100 104 104 115 110 82 52 27 354 322
332 339 345 345 344 337 338 338 344 345 349 162 301 62 311 28 332 79 343 250 281 274 293 279 238 219 160 209 216 202 194 155 164 159 197 260 218 110 219 196 148 169 171 143 161 197 189 160 181 208 160 125 246 157 239 142 104 37 70 54 42 274 121 78 165 241 36 23 36 58 66 306 103 83 65 52 56 85 97 112 109 111 102 88 13 324 290
331 341 341 345 344 338 338 338 349 352 344 152 27 88 4 334 347 337 320 290 314 272 303 273 283 241 162 220 144 204 203 187 180 261 206 214 194 187 213 158 114 109 177 205 203 190 187 175 183 172 176 187 199 173 195 221 143 46 119 96 54 305 118 110 154 271 155 39 11 56 83 142 101 65 72 88 77 63 107 124 154 154 141 122 113 326 294
326 340 341 342 341 340 337 340 355 5 345 70 346 48 348 250 180 254 285 250 41 303 305 212 213 230 200 235 151 215 188 166 177 285 231 243 263 275 225 160 144 116 189 217 215 190 176 198 312 167 126 348 125 263 163 174 152 152 104 268 153 62 152 201 130 262 80 36 34 39 207 211 251 225 94 68 93 94 98 57 92 102 137 136 141 181 245
319 338 340 338 342 345 334 343 3 21 18 44 17 29 1 12 353 345 196 292 221 57 293 275 247 9 86 46 340 260 262 227 233 255 298 293 256 199 212 172 169 148 201 205 315 120 123 98 100 77 80 79 90 43 129 143 98 146 149 129 107 154 158 125 120 316 102 45 7 300 228 240 235 41 318 263 94 169 180 142 147 146 177 125 133 167 174
314 332 335 338 339 340 333 345 9 38 37 26 360 347 356 332 276 280 174 264 285 148 265 257 258 317 350 14 331 297 288 270 266 231 259 277 302 335 186 194 130 185 162 109 109 105 117 115 88 92 58 49 61 65 40 327 64 3 283 164 154 156 109 103 270 210 116 102 208 212 239 249 37 327 313 233 214 39 327 113 180 173 188 144 138 142 164
300 321 331 335 334 343 339 348 7 32 40 18 13 333 27 336 311 10 314 231 272 250 256 246 90 269 281 293 285 267 274 288 278 255 253 258 277 229 191 190 207 132 134 131 117 104 95 91 37 23 27 40 67 83 60 36 14 4 6 23 140 163 150 136 76 64 106 180 144 244 243 347 301 283 217 146 253 261 244 224 221 208 199 172 142 152 142
271 306 323 328 332 344 344 356 1 15 49 27 350 335 322 290 191 123 330 266 266 178 240 286 271 276 264 252 275 291 304 288 289 204 233 221 227 238 182 213 308 144 140 111 78 96 89 49 128 200 116 3 37 227 111 71 30 350 222 225 311 146 93 160 115 299 214 159 202 275 334 288 221 220 198 195 182 139 263 232 180 203 191 192 156 150 146
262 288 309 317 324 327 330 345 4 7 33 26 340 331 313 245 223 277 305 266 288 297 174 263 97 15 328 306 319 324 303 312 325 261 256 314 238 244 211 90 134 163 164 125 83 38 119 116 123 194 117 235 227 227 79 203 88 45 359 19 121 118 199 155 184 147 259 163 198 248 264 272 231 132 83 119 145 153 151 207 123 175 177 174 165 159 155
253 279 292 300 314 312 325 344 18 338 11 355 354 345 310 288 199 272 281 292 334 279 237 230 86 317 310 305 306 287 308 310 328 294 302 214 247 127 80 120 125 74 56 62 83 96 111 172 168 174 212 202 81 54 207 117 152 76 74 139 102 72 72 121 227 127 167 173 214 204 248 261 25 159 141 150 182 165 177 263 161 100 193 168 166 162 160
250 270 276 281 296 297 320 321 319 294 343 52 359 332 307 102 193 206 165 182 207 262 44 192 190 196 320 284 170 171 216 320 335 328 312 93 15 330 115 77 81 60 58 92 39 113 115 76 78 278 45 144 165 244 53 213 144 116 119 114 91 96 74 138 126 145 188 169 205 237 211 266 47 12 132 176 182 196 247 283 317 242 174 167 166 167 164
246 260 267 269 274 289 328 309 316 333 335 131 357 322 296 253 227 196 200 237 245 274 258 198 195 223 242 273 276 358 269 280 265 183 268 294 302 12 348 312 150 19 266 96 125 90 88 142 187 189 195 133 333 92 216 145 170 153 167 140 144 128 106 341 207 173 148 207 217 308 254 217 241 177 152 163 185 226 243 264 81 146 162 170 163 163 168
242 250 259 262 264 277 296 318 323 338 70 118 335 199 171 234 193 189 142 168 189 253 121 269 272 265 355 29 292 342 357 334 322 294 311 259 55 316 280 291 302 184 10 135 73 115 158 131 359 227 189 154 213 212 117 184 180 49 124 135 106 87 98 67 146 172 187 178 238 264 311 23 110 79 166 164 180 208 242 57 90 147 146 139 142 141 156
238 243 252 257 261 262 280 301 338 350 26 148 22 335 317 3 93 66 247 238 194 265 275 265 236 245 163 271 272 270 278 257 199 267 254 271 14 321 141 150 313 80 93 117 122 30 188 172 154 146 191 150 173 100 174 86 3 166 190 341 208 171 186 173 176 110 79 168 217 162 256 136 174 126 116 202 252 356 72 131 133 183 148 138 131 141 152
240 237 243 250 253 257 261 288 317 349 356 129 35 345 136 145 64 48 22 307 264 293 290 78 323 259 257 248 244 251 242 244 195 211 149 275 348 334 193 172 132 173 163 170 166 184 181 135 182 180 22 149 127 210 196 121 182 213 279 199 208 81 214 149 182 203 230 178 201 215 351 112 172 186 196 169 238 62 154 154 138 161 163 142 137 147 154
243 235 235 241 248 247 254 259 294 306 234 73 5 316 275 212 341 345 2 352 240 236 291 318 294 272 256 253 257 252 250 249 250 264 278 294 237 245 319 307 277 245 115 129 99 77 303 96 95 164 174 127 290 206 121 175 192 129 82 208 191 192 255 185 224 172 221 274 85 75 32 34 140 33 51 49 89 171 173 201 128 156 148 146 134 137 149
255 236 232 233 238 243 243 247 253 276 239 134 155 291 298 309 305 345 326 285 254 258 265 278 276 273 261 242 231 229 235 235 247 243 223 230 273 217 239 249 258 224 59 267 189 137 130 153 160 109 99 178 155 130 36 299 132 163 178 187 348 27 50 64 134 149 266 279 285 324 181 168 158 163 280 126 139 150 195 180 149 152 118 158 130 137 135
270 241 233 231 235 236 236 236 244 261 252 180 195 272 275 294 304 326 274 227 269 303 279 209 286 269 185 87 112 215 226 235 229 232 218 201 230 268 217 227 288 254 261 254 329 142 148 104 120 198 199 152 143 159 167 208 228 155 160 165 200 142 147 207 189 89 175 178 151 189 114 116 131 124 110 38 233 158 182 159 132 127 124 117 120 131 136
275 248 232 232 232 235 236 236 237 239 227 235 268 256 270 273 244 235 219 238 231 212 295 300 239 259 344 313 282 256 231 222 202 205 202 205 217 233 278 81 103 2 329 315 109 119 115 126 165 171 202 145 230 188 9 202 192 183 197 132 147 182 197 142 107 161 200 76 120 118 348 319 51 154 147 148 149 136 118 78 96 104 101 119 127 129 128
273 250 232 231 229 233 234 233 235 234 225 237 254 276 277 275 230 218 308 318 337 283 276 284 286 90 1 312 263 245 246 209 212 206 204 206 214 227 256 302 299 48 328 283 313 252 117 82 101 99 200 150 269 230 176 325 34 106 263 166 150 84 159 198 160 155 112 41 251 223 80 180 177 176 218 137 148 146 129 121 120 122 121 121 130 146 150
266 248 229 226 228 232 235 236 237 236 226 216 235 255 260 266 246 229 218 202 200 238 213 254 283 299 341 309 286 279 249 234 221 216 211 211 216 224 237 254 281 311 313 290 344 173 81 115 162 135 340 98 153 58 97 139 181 152 202 140 143 150 176 107 157 140 192 188 171 167 165 190 192 192 178 170 169 146 137 135 137 140 136 143 144 144 151
265 241 223 223 226 227 235 237 238 242 229 242 256 267 266 264 248 227 223 231 234 283 307 280 290 304 314 270 269 245 240 210 202 206 211 211 210 216 221 229 228 252 271 255 191 161 108 149 128 90 101 122 166 136 21 55 51 227 250 190 191 191 158 166 180 190 210 183 161 182 176 148 168 171 159 156 167 156 151 158 156 155 152 154 148 144 150
260 238 218 216 211 220 222 227 239 246 237 241 268 268 265 244 239 219 217 211 224 262 294 280 276 274 294 337 315 291 258 210 205 206 206 205 205 208 215 210 207 204 205 296 282 87 114 84 102 160 139 187 128 118 159 183 202 223 221 156 186 268 168 180 182 127 5 158 166 175 164 116 135 144 145 155 167 164 155 154 155 157 158 164 158 158 155
256 225 204 202 202 204 206 220 235 234 212 267 260 294 280 153 147 226 200 192 178 224 260 310 302 273 345 300 282 286 282 224 200 198 201 202 201 204 202 187 202 202 239 248 220 137 109 122 145 360 11 290 160 136 204 153 221 231 8 223 192 102 215 256 83 146 150 129 171 165 121 80 91 131 142 150 166 168 153 156 158 155 161 165 154 148 152
241 200 187 182 189 201 207 221 232 226 209 225 217 237 251 252 111 173 168 182 172 206 261 246 262 311 305 233 269 282 276 272 237 205 201 204 195 186 174 165 183 172 198 205 144 93 153 145 148 110 102 305 97 166 176 168 217 266 209 191 198 194 191 191 149 53 107 109 118 113 77 95 114 108 119 152 161 164 142 146 153 158 156 160 151 147 144
199 175 171 182 198 206 220 227 233 223 217 215 206 197 44 38 8 119 157 175 166 215 239 277 286 251 294 290 256 281 285 283 206 141 107 146 129 136 119 214 166 160 260 135 126 126 140 71 108 144 153 147 97 106 130 179 224 233 156 189 206 203 157 150 167 145 109 132 122 122 134 139 179 164 167 173 164 168 160 150 150 147 148 133 110 108 118
169 166 177 192 205 218 230 228 227 212 220 256 300 292 273 253 240 228 136 152 183 230 263 257 262 314 281 297 320 272 309 255 143 171 140 312 155 183 138 91 88 84 9 68 39 46 67 104 117 143 81 282 148 146 196 213 221 205 280 239 157 171 184 160 152 153 158 171 166 155 180 186 199 203 113 152 155 159 152 141 140 131 134 137 136 130 126
166 168 181 195 209 225 239 224 209 222 239 242 255 247 238 214 231 214 179 243 223 238 243 254 283 277 280 333 283 144 300 255 139 275 139 31 5 244 122 91 17 77 1 81 233 144 44 283 155 98 134 146 37 168 218 224 220 189 334 175 116 128 127 145 164 174 184 186 106 20 35 100 102 109 125 134 139 143 144 132 142 147 151 153 152 148 142
164 168 184 200 210 231 233 229 226 218 231 241 249 254 189 177 189 158 165 183 183 183 217 222 233 291 304 326 294 36 345 261 145 353 109 72 332 107 136 83 337 22 299 35 71 8 182 177 132 174 179 98 179 219 229 205 196 158 172 171 170 141 130 136 199 187 179 164 144 115 133 136 137 145 146 147 146 151 150 154 156 149 150 153 148 150 156
173 188 203 208 225 223 214 202 215 209 230 227 228 101 133 150 144 144 168 192 300 320 263 276 251 256 291 293 318 7 330 38 7 225 26 163 94 11 356 103 158 349 58 284 201 195 188 109 193 208 108 193 206 207 206 190 193 188 189 192 183 185 186 187 158 152 142 125 134 134 153 161 157 153 146 148 147 155 155 151 158 159 153 148 153 152 160
187 203 224 210 172 170 208 222 173 205 235 274 125 113 111 104 88 113 140 235 213 235 276 302 273 246 217 312 300 268 321 335 354 27 14 76 109 359 34 145 157 120 182 185 157 183 106 22 270 156 177 209 222 211 209 190 186 177 195 209 197 207 85 79 131 133 128 117 121 138 157 164 140 137 146 150 153 155 154 157 163 163 161 161 158 164 169
200 228 172 146 176 191 194 196 206 179 167 124 132 120 177 235 148 163 152 219 213 201 225 227 249 252 96 272 262 29 320 2 293 88 92 18 116 48 359 69 92 231 186 160 111 360 116 148 240 237 231 238 288 280 239 213 222 214 198 186 185 187 162 141 144 135 126 121 126 137 134 153 152 165 159 160 158 166 174 166 167 169 163 162 163 159 152
201 172 201 199 225 214 193 124 120 139 139 129 228 219 145 214 148 184 192 188 169 228 214 224 244 191 204 234 270 335 337 329 317 11 116 325 182 106 339 103 127 277 110 159 141 255 211 192 195 202 248 207 236 229 216 215 225 220 218 207 185 168 163 169 167 155 160 172 177 175 167 167 172 181 179 161 166 163 153 154 157 160 159 154 148 159 162
144 181 188 174 223 223 79 37 147 150 171 177 197 235 132 167 210 172 112 153 241 225 193 234 221 206 206 226 263 298 131 274 318 30 91 67 323 103 299 339 289 190 131 197 144 172 238 221 158 214 248 202 234 233 214 198 210 217 198 194 183 176 176 174 186 186 177 174 161 166 172 169 168 161 171 169 163 162 160 169 160 152 154 150 148 162 178
194 197 190 227 300 11 355 349 43 191 190 176 157 242 130 172 217 156 179 217 234 226 201 239 147 230 201 221 185 240 172 160 110 224 100 98 283 119 143 136 303 22 324 203 153 187 185 229 206 218 230 199 220 219 196 206 222 218 186 181 181 178 185 191 189 187 157 120 123 144 158 156 159 163 167 167 168 169 166 162 166 168 157 152 170 181 144
120 296 349 329 277 271 274 211 202 161 162 305 201 174 225 334 88 203 229 235 223 204 187 184 212 214 210 189 196 218 228 358 113 98 138 103 4 49 93 105 183 198 211 96 107 136 188 229 222 236 221 235 236 230 214 222 222 210 194 183 183 182 187 190 185 180 176 157 150 153 157 164 159 153 159 162 167 162 151 147 145 155 163 142 121 127 143
282 259 262 308 290 197 232 161 197 186 148 152 78 125 92 189 202 208 191 219 321 257 70 181 336 3 8 177 174 241 297 288 263 29 7 110 217 56 100 82 128 191 175 114 201 150 209 227 227 243 248 238 230 221 222 225 229 214 199 181 186 184 184 184 183 176 174 163 155 154 160 164 160 156 155 151 143 135 131 138 146 144 142 140 135 126 122
218 261 252 213 186 214 190 173 188 145 26 139 151 190 182 222 208 186 224 202 175 211 174 188 175 224 211 163 228 131 207 182 133 107 60 7 176 108 141 161 213 50 71 190 190 216 231 246 228 233 240 261 267 241 237 222 211 200 188 190 191 188 191 183 157 140 141 129 123 126 136 136 130 130 148 153 156 151 140 118 115 121 125 124 119 117 119
195 192 318 5 86 261 65 304 278 177 205 190 203 201 177 215 181 183 176 88 224 78 117 222 167 188 265 103 298 318 268 143 188 190 178 239 106 100 202 223 118 155 201 215 194 237 337 256 236 244 249 248 244 237 228 212 186 190 175 160 180 184 180 179 177 171 158 159 152 148 149 144 141 146 155 156 155 144 143 142 144 134 132 123 119 121 127
197 180 130 101 83 275 137 176 151 205 248 155 196 192 190 215 189 199 170 155 190 161 193 145 222 223 226 150 237 144 178 147 160 132 123 138 131 205 337 353 193 200 202 229 219 221 223 244 240 237 230 231 239 244 235 223 165 162 157 182 190 185 186 181 176 171 166 153 150 153 149 153 149 147 147 143 139 137 126 129 142 137 132 127 132 131 136
259 237 94 116 109 258 240 184 210 241 45 183 214 191 226 247 241 285 299 177 256 273 307 45 273 274 320 134 193 194 210 242 171 125 194 173 175 87 335 207 241 223 211 211 211 237 247 243 240 240 239 240 245 243 237 209 185 189 201 190 168 182 182 181 175 170 162 151 149 148 147 148 141 132 127 125 121 123 127 129 133 137 134 130 127 125 127
208 244 185 165 203 176 176 211 143 275 265 291 74 212 302 342 285 260 166 206 282 302 237 225 202 165 165 25 279 197 107 318 149 149 260 95 91 100 305 245 215 213 208 208 223 205 242 245 245 235 233 237 245 247 230 209 201 201 199 194 186 178 179 177 175 166 155 156 156 152 148 145 142 145 144 133 127 129 136 135 133 124 114 117 123 125 126
227 156 148 216 225 171 269 11 124 221 155 250 265 232 205 225 260 298 346 287 235 264 251 232 234 222 108 349 252 163 185 349 200 157 141 180 197 191 180 204 189 223 215 213 236 215 240 253 247 270 270 258 236 234 243 228 209 198 197 195 190 184 178 177 174 164 161 157 149 146 147 146 140 132 127 127 128 136 139 134 130 124 127 129 132 132 130
66 342 313 122 236 220 354 45 344 224 155 173 144 119 39 275 303 45 349 309 21 134 117 82 39 69 41 321 26 265 198 191 152 109 192 196 195 168 190 222 192 218 201 189 221 241 251 252 207 257 258 259 262 255 256 248 214 212 204 196 181 174 179 173 162 158 159 154 153 148 143 142 144 144 149 146 134 132 135 131 128 127 128 131 134 136 139
329 146 247 265 284 69 106 173 186 175 148 106 41 46 14 31 22 359 336 306 205 175 182 104 38 79 121 247 340 173 179 134 177 194 208 205 158 184 208 228 207 211 238 229 236 251 264 250 212 256 277 277 269 267 262 258 235 211 193 181 171 166 165 167 161 156 149 143 139 136 146 151 148 137 121 118 124 127 122 119 125 130 131 133 138 143 148
108 236 244 93 211 192 237 336 275 260 275 302 296 116 255 23 9 318 245 273 255 206 138 103 150 90 289 222 209 66 82 184 195 131 199 216 170 210 206 219 242 231 225 237 248 239 248 282 229 243 257 282 291 295 279 256 209 187 182 174 168 163 159 154 153 149 142 141 145 141 131 128 125 124 127 128 129 133 138 144 144 137 138 142 144 145 142